SJV528 WALL-WAMM

Flight info

Callsign SJV528
Flight time 1h 17m
Altitude 35000
Route LADOP W15 GOTSA
Aircraft A320/M-SDE3FGHIRWY/LB1

Departure

Time 2026-04-19 02:55
Airport Sultan Aji Muhammad Sulaiman Sepinggan International Airport (WALL)

Arrival

Time 2026-04-19 04:12
Airport Sam Ratulangi International Airport (WAMM)
Time Latitude Longitude Altitude Speed Heading
2026-04-19 02:40 -1.26281 116.89924 21 ft 0 kts 336°
2026-04-19 02:44 -1.26297 116.89931 21 ft 4 kts 333°
2026-04-19 02:44 -1.26320 116.89945 21 ft 4 kts 321°
2026-04-19 02:44 -1.26338 116.89963 23 ft 4 kts 290°
2026-04-19 02:45 -1.26339 116.89980 21 ft 1 kts 247°
2026-04-19 02:45 -1.26338 116.89984 21 ft 0 kts 247°
2026-04-19 02:48 -1.26339 116.89982 21 ft 1 kts 247°
2026-04-19 02:49 -1.26343 116.89971 21 ft 3 kts 247°
2026-04-19 02:49 -1.26353 116.89947 21 ft 5 kts 248°
2026-04-19 02:49 -1.26368 116.89911 21 ft 6 kts 248°
2026-04-19 02:49 -1.26387 116.89865 21 ft 8 kts 248°
2026-04-19 02:50 -1.26412 116.89808 21 ft 10 kts 248°
2026-04-19 02:50 -1.26466 116.89772 23 ft 11 kts 171°
2026-04-19 02:50 -1.26528 116.89743 21 ft 12 kts 239°
2026-04-19 02:51 -1.26602 116.89570 21 ft 15 kts 247°
2026-04-19 02:51 -1.26645 116.89467 21 ft 17 kts 248°
2026-04-19 02:51 -1.26693 116.89352 21 ft 19 kts 247°
2026-04-19 02:51 -1.26746 116.89225 21 ft 21 kts 247°
2026-04-19 02:52 -1.26806 116.89087 21 ft 22 kts 246°
2026-04-19 02:52 -1.26870 116.88938 23 ft 24 kts 247°
2026-04-19 02:52 -1.26936 116.88778 23 ft 26 kts 248°
2026-04-19 02:52 -1.27007 116.88609 23 ft 27 kts 247°
2026-04-19 02:53 -1.27065 116.88471 21 ft 19 kts 245°
2026-04-19 02:53 -1.27126 116.88376 21 ft 14 kts 215°
2026-04-19 02:53 -1.27211 116.88380 24 ft 12 kts 146°
2026-04-19 02:53 -1.27256 116.88426 20 ft 4 kts 145°
2026-04-19 02:54 -1.27257 116.88453 20 ft 5 kts 70°
2026-04-19 02:54 -1.27209 116.88571 21 ft 49 kts 68°
2026-04-19 02:54 -1.26989 116.89089 19 ft 110 kts 67°
2026-04-19 02:54 -1.26631 116.89932 33 ft 151 kts 66°
2026-04-19 02:55 -1.26225 116.90886 563 ft 149 kts 66°
2026-04-19 02:55 -1.25818 116.91841 1110 ft 149 kts 66°
2026-04-19 02:55 -1.25407 116.92796 1632 ft 150 kts 64°
2026-04-19 02:55 -1.24940 116.93760 1888 ft 163 kts 63°
2026-04-19 02:56 -1.24400 116.94842 2018 ft 186 kts 63°
2026-04-19 02:56 -1.23789 116.96064 2170 ft 209 kts 63°
2026-04-19 02:56 -1.23101 116.97437 2396 ft 233 kts 63°
2026-04-19 02:56 -1.22336 116.98964 2746 ft 256 kts 63°
2026-04-19 02:57 -1.21523 117.00590 3434 ft 265 kts 63°
2026-04-19 02:57 -1.20699 117.02249 4264 ft 269 kts 63°
2026-04-19 02:57 -1.19866 117.03933 5073 ft 272 kts 63°
2026-04-19 02:57 -1.19032 117.05621 5872 ft 276 kts 64°
2026-04-19 02:58 -1.18160 117.07380 6633 ft 280 kts 64°
2026-04-19 02:58 -1.17290 117.09131 7379 ft 284 kts 63°
2026-04-19 02:58 -1.16404 117.10911 8097 ft 288 kts 64°
2026-04-19 02:58 -1.15520 117.12691 8794 ft 291 kts 64°
2026-04-19 02:59 -1.14609 117.14521 9484 ft 296 kts 64°
2026-04-19 02:59 -1.13699 117.16366 10116 ft 300 kts 64°
2026-04-19 02:59 -1.12744 117.18293 10365 ft 319 kts 64°
2026-04-19 02:59 -1.11736 117.20347 10478 ft 339 kts 64°
2026-04-19 03:00 -1.10665 117.22510 10733 ft 353 kts 64°
2026-04-19 03:00 -1.09561 117.24727 11246 ft 359 kts 63°
2026-04-19 03:00 -1.08442 117.26970 11804 ft 363 kts 63°
2026-04-19 03:00 -1.07313 117.29239 12351 ft 366 kts 63°
2026-04-19 03:01 -1.06174 117.31528 12906 ft 369 kts 63°
2026-04-19 03:01 -1.05029 117.33836 13454 ft 372 kts 63°
2026-04-19 03:01 -1.03881 117.36155 14002 ft 374 kts 63°
2026-04-19 03:01 -1.02721 117.38498 14511 ft 378 kts 63°
2026-04-19 03:02 -1.01550 117.40860 15021 ft 381 kts 63°
2026-04-19 03:02 -1.00369 117.43240 15552 ft 384 kts 63°
2026-04-19 03:02 -0.99186 117.45631 16333 ft 384 kts 63°
2026-04-19 03:02 -0.97994 117.48036 16754 ft 389 kts 62°
2026-04-19 03:03 -0.96786 117.50471 17176 ft 393 kts 62°
2026-04-19 03:03 -0.95567 117.52923 17631 ft 396 kts 62°
2026-04-19 03:03 -0.94336 117.55397 18122 ft 399 kts 62°
2026-04-19 03:03 -0.93098 117.57886 18570 ft 402 kts 62°
2026-04-19 03:04 -0.91850 117.60395 19004 ft 404 kts 62°
2026-04-19 03:04 -0.90598 117.62915 19416 ft 407 kts 62°
2026-04-19 03:04 -0.89337 117.65458 19830 ft 410 kts 62°
2026-04-19 03:04 -0.88070 117.68021 20219 ft 413 kts 62°
2026-04-19 03:05 -0.86791 117.70601 20610 ft 416 kts 62°
2026-04-19 03:05 -0.85504 117.73193 21001 ft 419 kts 62°
2026-04-19 03:05 -0.84204 117.75809 21378 ft 421 kts 62°
2026-04-19 03:05 -0.82899 117.78434 21727 ft 424 kts 62°
2026-04-19 03:06 -0.81584 117.81082 22084 ft 427 kts 62°
2026-04-19 03:06 -0.80260 117.83747 22452 ft 429 kts 62°
2026-04-19 03:06 -0.79382 117.85514 22677 ft 431 kts 62°
2026-04-19 03:06 -0.78046 117.88202 22993 ft 433 kts 62°
2026-04-19 03:07 -0.76702 117.90911 23322 ft 435 kts 62°
2026-04-19 03:07 -0.75358 117.93626 23661 ft 438 kts 62°
2026-04-19 03:07 -0.74002 117.96366 24137 ft 441 kts 62°
2026-04-19 03:07 -0.72640 117.99113 24649 ft 443 kts 62°
2026-04-19 03:08 -0.71269 118.01880 25105 ft 445 kts 63°
2026-04-19 03:08 -0.69886 118.04665 25434 ft 449 kts 63°
2026-04-19 03:08 -0.68491 118.07470 25709 ft 452 kts 62°
2026-04-19 03:08 -0.67090 118.10286 25954 ft 454 kts 62°
2026-04-19 03:09 -0.65684 118.13118 26209 ft 456 kts 62°
2026-04-19 03:09 -0.64275 118.15959 26462 ft 457 kts 63°
2026-04-19 03:09 -0.62862 118.18810 26702 ft 459 kts 63°
2026-04-19 03:09 -0.61440 118.21680 26930 ft 461 kts 63°
2026-04-19 03:10 -0.60017 118.24554 27176 ft 462 kts 63°
2026-04-19 03:10 -0.58588 118.27437 27412 ft 464 kts 63°
2026-04-19 03:10 -0.57154 118.30328 27651 ft 465 kts 63°
2026-04-19 03:10 -0.55716 118.33227 27878 ft 467 kts 63°
2026-04-19 03:11 -0.54270 118.36135 28109 ft 468 kts 63°
2026-04-19 03:11 -0.52837 118.39013 28344 ft 470 kts 63°
2026-04-19 03:11 -0.51379 118.41942 28589 ft 472 kts 63°
2026-04-19 03:11 -0.49916 118.44878 28882 ft 472 kts 63°
2026-04-19 03:12 -0.48455 118.47817 29226 ft 471 kts 63°
2026-04-19 03:12 -0.47004 118.50738 29556 ft 470 kts 63°
2026-04-19 03:12 -0.45553 118.53667 29879 ft 469 kts 63°
2026-04-19 03:12 -0.44108 118.56584 30251 ft 469 kts 63°
2026-04-19 03:13 -0.42662 118.59500 30756 ft 467 kts 63°
2026-04-19 03:13 -0.41224 118.62405 31329 ft 465 kts 63°
2026-04-19 03:13 -0.39796 118.65291 31919 ft 462 kts 63°
2026-04-19 03:13 -0.38374 118.68157 32467 ft 459 kts 63°
2026-04-19 03:14 -0.36958 118.71003 32886 ft 457 kts 63°
2026-04-19 03:14 -0.35543 118.73850 33278 ft 457 kts 63°
2026-04-19 03:14 -0.34135 118.76686 33712 ft 455 kts 63°
2026-04-19 03:14 -0.32732 118.79510 34061 ft 453 kts 63°
2026-04-19 03:15 -0.31331 118.82329 34393 ft 452 kts 63°
2026-04-19 03:15 -0.29936 118.85135 34715 ft 451 kts 63°
2026-04-19 03:15 -0.28539 118.87945 34902 ft 451 kts 63°
2026-04-19 03:16 -0.25719 118.93623 34931 ft 461 kts 63°
2026-04-19 03:16 -0.22856 118.99391 34931 ft 464 kts 63°
2026-04-19 03:17 -0.19989 119.05172 34936 ft 465 kts 63°
2026-04-19 03:17 -0.17117 119.10963 34932 ft 465 kts 63°
2026-04-19 03:18 -0.14233 119.16755 34947 ft 466 kts 63°
2026-04-19 03:18 -0.11345 119.22567 34939 ft 467 kts 63°
2026-04-19 03:19 -0.08464 119.28383 34937 ft 467 kts 63°
2026-04-19 03:19 -0.05582 119.34194 34935 ft 466 kts 63°
2026-04-19 03:20 -0.02702 119.39996 34935 ft 467 kts 63°
2026-04-19 03:20 0.00192 119.45816 34940 ft 468 kts 63°
2026-04-19 03:21 0.02895 119.51719 34937 ft 469 kts 71°
2026-04-19 03:21 0.04472 119.58045 34937 ft 470 kts 76°
2026-04-19 03:22 0.05988 119.64399 34941 ft 471 kts 75°
2026-04-19 03:22 0.07510 119.70760 34943 ft 471 kts 76°
2026-04-19 03:23 0.09029 119.77121 34938 ft 471 kts 76°
2026-04-19 03:23 0.10547 119.83491 34946 ft 471 kts 75°
2026-04-19 03:24 0.12060 119.89871 34949 ft 472 kts 76°
2026-04-19 03:24 0.13582 119.96259 34951 ft 473 kts 75°
2026-04-19 03:25 0.15109 120.02639 34949 ft 472 kts 76°
2026-04-19 03:25 0.16622 120.09014 34942 ft 471 kts 76°
2026-04-19 03:26 0.18139 120.15383 34945 ft 472 kts 76°
2026-04-19 03:26 0.19657 120.21724 34941 ft 472 kts 76°
2026-04-19 03:27 0.21175 120.28101 34947 ft 472 kts 76°
2026-04-19 03:27 0.22693 120.34478 34958 ft 472 kts 76°
2026-04-19 03:28 0.24213 120.40860 34962 ft 472 kts 76°
2026-04-19 03:28 0.25737 120.47241 34960 ft 472 kts 76°
2026-04-19 03:29 0.27256 120.53609 34960 ft 471 kts 76°
2026-04-19 03:29 0.28774 120.59983 34956 ft 470 kts 75°
2026-04-19 03:30 0.30273 120.66292 34944 ft 466 kts 77°
2026-04-19 03:30 0.31770 120.72587 34948 ft 467 kts 77°
2026-04-19 03:31 0.33282 120.78915 34944 ft 468 kts 77°
2026-04-19 03:31 0.34788 120.85235 34943 ft 468 kts 77°
2026-04-19 03:32 0.36298 120.91559 34940 ft 468 kts 77°
2026-04-19 03:32 0.37802 120.97885 34957 ft 468 kts 77°
2026-04-19 03:33 0.39305 121.04213 34961 ft 468 kts 77°
2026-04-19 03:33 0.40803 121.10534 34966 ft 468 kts 78°
2026-04-19 03:34 0.42311 121.16862 34967 ft 467 kts 77°
2026-04-19 03:34 0.43825 121.23167 34967 ft 467 kts 78°
2026-04-19 03:35 0.45338 121.29479 34966 ft 466 kts 78°
2026-04-19 03:35 0.46836 121.35772 34966 ft 465 kts 78°
2026-04-19 03:36 0.48328 121.42070 34969 ft 467 kts 78°
2026-04-19 03:36 0.49825 121.48373 34964 ft 465 kts 78°
2026-04-19 03:37 0.51327 121.54651 34965 ft 464 kts 78°
2026-04-19 03:37 0.52826 121.60906 34967 ft 463 kts 78°
2026-04-19 03:38 0.54314 121.67181 34974 ft 464 kts 78°
2026-04-19 03:38 0.55799 121.73453 34976 ft 465 kts 78°
2026-04-19 03:39 0.57301 121.79752 34977 ft 465 kts 78°
2026-04-19 03:39 0.58785 121.85961 34945 ft 460 kts 79°
2026-04-19 03:40 0.60257 121.92190 34952 ft 461 kts 79°
2026-04-19 03:40 0.61738 121.98430 34954 ft 462 kts 78°
2026-04-19 03:41 0.63229 122.04670 34954 ft 461 kts 79°
2026-04-19 03:41 0.64721 122.10882 34951 ft 460 kts 78°
2026-04-19 03:42 0.66204 122.17110 34962 ft 460 kts 79°
2026-04-19 03:42 0.67679 122.23333 34965 ft 461 kts 79°
2026-04-19 03:43 0.69154 122.29545 34958 ft 459 kts 79°
2026-04-19 03:43 0.70632 122.35752 34960 ft 460 kts 78°
2026-04-19 03:44 0.72117 122.41979 34963 ft 460 kts 79°
2026-04-19 03:44 0.73597 122.48194 34968 ft 460 kts 79°
2026-04-19 03:45 0.75078 122.54418 34975 ft 460 kts 79°
2026-04-19 03:45 0.76556 122.60634 34974 ft 460 kts 79°
2026-04-19 03:46 0.78036 122.66855 34973 ft 460 kts 79°
2026-04-19 03:46 0.79512 122.73060 34973 ft 460 kts 79°
2026-04-19 03:47 0.80991 122.79278 34977 ft 460 kts 79°
2026-04-19 03:47 0.82460 122.85446 34981 ft 459 kts 79°
2026-04-19 03:48 0.83938 122.91650 34985 ft 459 kts 79°
2026-04-19 03:48 0.85425 122.97859 34983 ft 459 kts 79°
2026-04-19 03:49 0.86895 123.04069 34996 ft 459 kts 79°
2026-04-19 03:49 0.88363 123.10276 34982 ft 458 kts 79°
2026-04-19 03:50 0.89830 123.16454 34744 ft 457 kts 79°
2026-04-19 03:50 0.90563 123.19557 33949 ft 461 kts 79°
2026-04-19 03:50 0.91307 123.22687 33039 ft 466 kts 79°
2026-04-19 03:50 0.92063 123.25851 32134 ft 470 kts 78°
2026-04-19 03:51 0.92825 123.29032 31427 ft 470 kts 78°
2026-04-19 03:51 0.93581 123.32186 30879 ft 465 kts 79°
2026-04-19 03:51 0.94328 123.35328 30274 ft 461 kts 79°
2026-04-19 03:51 0.95056 123.38427 29676 ft 458 kts 79°
2026-04-19 03:52 0.95782 123.41515 29081 ft 454 kts 79°
2026-04-19 03:52 0.96488 123.44530 28489 ft 451 kts 79°
2026-04-19 03:52 0.96968 123.46587 28091 ft 449 kts 79°
2026-04-19 03:52 0.97673 123.49614 27503 ft 445 kts 78°
2026-04-19 03:53 0.98603 123.53596 26718 ft 442 kts 78°
2026-04-19 03:53 0.99301 123.56580 26142 ft 440 kts 78°
2026-04-19 03:53 0.99997 123.59539 25569 ft 436 kts 78°
2026-04-19 03:53 1.00688 123.62483 25006 ft 433 kts 78°
2026-04-19 03:54 1.01150 123.64451 24638 ft 431 kts 78°
2026-04-19 03:54 1.01834 123.67361 24107 ft 428 kts 78°
2026-04-19 03:54 1.02504 123.70207 23593 ft 426 kts 77°
2026-04-19 03:54 1.03179 123.73077 23090 ft 424 kts 78°
2026-04-19 03:55 1.03848 123.75942 22581 ft 423 kts 78°
2026-04-19 03:55 1.04514 123.78793 22077 ft 420 kts 77°
2026-04-19 03:55 1.05182 123.81633 21626 ft 417 kts 78°
2026-04-19 03:55 1.05847 123.84436 21182 ft 414 kts 77°
2026-04-19 03:56 1.06507 123.87220 20746 ft 409 kts 77°
2026-04-19 03:56 1.07155 123.89972 20316 ft 405 kts 77°
2026-04-19 03:56 1.07793 123.92699 19887 ft 401 kts 78°
2026-04-19 03:56 1.08426 123.95403 19465 ft 399 kts 78°
2026-04-19 03:57 1.09057 123.98094 19040 ft 396 kts 78°
2026-04-19 03:57 1.09683 124.00762 18627 ft 393 kts 77°
2026-04-19 03:57 1.10307 124.03417 18215 ft 391 kts 78°
2026-04-19 03:57 1.10930 124.06055 17799 ft 389 kts 78°
2026-04-19 03:58 1.11549 124.08681 17388 ft 387 kts 78°
2026-04-19 03:58 1.12165 124.11292 16980 ft 385 kts 77°
2026-04-19 03:58 1.12777 124.13885 16573 ft 382 kts 77°
2026-04-19 03:58 1.13383 124.16459 16170 ft 380 kts 77°
2026-04-19 03:59 1.13986 124.19017 15771 ft 378 kts 77°
2026-04-19 03:59 1.14586 124.21562 15372 ft 375 kts 77°
2026-04-19 03:59 1.15185 124.24093 14974 ft 373 kts 77°
2026-04-19 03:59 1.15780 124.26606 14582 ft 370 kts 77°
2026-04-19 04:00 1.16366 124.29105 14190 ft 368 kts 77°
2026-04-19 04:00 1.16946 124.31588 13798 ft 366 kts 77°
2026-04-19 04:00 1.17527 124.34061 13422 ft 364 kts 77°
2026-04-19 04:00 1.18101 124.36506 13036 ft 361 kts 77°
2026-04-19 04:01 1.18674 124.38949 12649 ft 359 kts 77°
2026-04-19 04:01 1.19812 124.43780 11906 ft 355 kts 77°
2026-04-19 04:01 1.20379 124.46175 11532 ft 353 kts 77°
2026-04-19 04:02 1.20933 124.48523 11155 ft 350 kts 77°
2026-04-19 04:02 1.21491 124.50911 10795 ft 347 kts 77°
2026-04-19 04:02 1.22037 124.53255 10459 ft 344 kts 77°
2026-04-19 04:02 1.22562 124.55513 10329 ft 332 kts 77°
2026-04-19 04:03 1.23057 124.57726 10200 ft 321 kts 78°
2026-04-19 04:03 1.23511 124.59877 10084 ft 311 kts 78°
2026-04-19 04:03 1.23942 124.61976 9848 ft 306 kts 78°
2026-04-19 04:03 1.24366 124.64039 9585 ft 302 kts 78°
2026-04-19 04:04 1.24788 124.66085 9281 ft 299 kts 78°
2026-04-19 04:04 1.25209 124.68112 8988 ft 297 kts 78°
2026-04-19 04:04 1.25628 124.70128 8698 ft 294 kts 78°
2026-04-19 04:04 1.26042 124.72118 8410 ft 292 kts 78°
2026-04-19 04:05 1.26455 124.74095 8116 ft 290 kts 78°
2026-04-19 04:05 1.26667 124.76096 7665 ft 293 kts 88°
2026-04-19 04:05 1.26729 124.78128 7100 ft 290 kts 88°
2026-04-19 04:05 1.26780 124.80127 6520 ft 287 kts 88°
2026-04-19 04:06 1.26827 124.82092 6123 ft 277 kts 88°
2026-04-19 04:06 1.26874 124.83966 5969 ft 264 kts 88°
2026-04-19 04:06 1.26918 124.85776 5841 ft 257 kts 89°
2026-04-19 04:06 1.27012 124.87525 5718 ft 248 kts 78°
2026-04-19 04:07 1.27557 124.89095 5608 ft 238 kts 60°
2026-04-19 04:07 1.28552 124.90402 5532 ft 232 kts 43°
2026-04-19 04:07 1.29839 124.91321 5352 ft 231 kts 26°
2026-04-19 04:07 1.31356 124.91814 5078 ft 230 kts
2026-04-19 04:08 1.32951 124.91905 4767 ft 230 kts
2026-04-19 04:08 1.34581 124.91960 4422 ft 231 kts
2026-04-19 04:08 1.36190 124.92012 4087 ft 233 kts
2026-04-19 04:08 1.37826 124.92066 3748 ft 236 kts
2026-04-19 04:09 1.39455 124.92120 3395 ft 238 kts
2026-04-19 04:09 1.41079 124.92175 3053 ft 228 kts
2026-04-19 04:09 1.42622 124.92226 2736 ft 217 kts
2026-04-19 04:09 1.44107 124.92275 2417 ft 208 kts
2026-04-19 04:10 1.45516 124.92322 2136 ft 196 kts
2026-04-19 04:10 1.46832 124.92365 1861 ft 183 kts
2026-04-19 04:10 1.48038 124.92406 1597 ft 166 kts
2026-04-19 04:10 1.49144 124.92443 1354 ft 155 kts
2026-04-19 04:11 1.50209 124.92478 1134 ft 151 kts
2026-04-19 04:11 1.51255 124.92513 911 ft 150 kts
2026-04-19 04:11 1.52293 124.92546 723 ft 149 kts
2026-04-19 04:11 1.53336 124.92580 503 ft 150 kts
2026-04-19 04:12 1.54361 124.92618 345 ft 139 kts
2026-04-19 04:12 1.55180 124.92641 337 ft 96 kts
2026-04-19 04:12 1.55727 124.92659 337 ft 49 kts
2026-04-19 04:12 1.55910 124.92655 336 ft 18 kts 336°
2026-04-19 04:13 1.55963 124.92655 338 ft 7 kts 91°
2026-04-19 04:13 1.55915 124.92667 338 ft 8 kts 180°
2026-04-19 04:13 1.55850 124.92664 334 ft 11 kts 181°
2026-04-19 04:13 1.55767 124.92662 335 ft 13 kts 181°
2026-04-19 04:14 1.55666 124.92660 337 ft 16 kts 181°
2026-04-19 04:14 1.55550 124.92657 336 ft 17 kts 183°
2026-04-19 04:14 1.55424 124.92651 337 ft 19 kts 182°
2026-04-19 04:14 1.55283 124.92646 338 ft 22 kts 181°
2026-04-19 04:15 1.55123 124.92643 337 ft 24 kts 182°
2026-04-19 04:15 1.54950 124.92635 338 ft 26 kts 182°
2026-04-19 04:15 1.54765 124.92630 335 ft 28 kts 181°
2026-04-19 04:15 1.54564 124.92624 335 ft 30 kts 181°
2026-04-19 04:16 1.54355 124.92617 336 ft 27 kts 182°
2026-04-19 04:16 1.54184 124.92612 336 ft 14 kts 183°
2026-04-19 04:16 1.54138 124.92539 335 ft 14 kts 273°
2026-04-19 04:16 1.54141 124.92449 336 ft 12 kts 276°
2026-04-19 04:17 1.54212 124.92418 336 ft 13 kts
2026-04-19 04:17 1.54312 124.92420 334 ft 15 kts
2026-04-19 04:17 1.54379 124.92429 337 ft 6 kts 17°
2026-04-19 04:17 1.54398 124.92402 337 ft 6 kts 270°
2026-04-19 04:18 1.54398 124.92367 336 ft 3 kts 269°
2026-04-19 04:18 1.54398 124.92356 337 ft 1 kts 270°
2026-04-19 04:18 1.54398 124.92347 336 ft 1 kts 270°
2026-04-19 04:18 1.54398 124.92340 337 ft 1 kts 271°
2026-04-19 04:19 1.54398 124.92339 337 ft 0 kts 271°